Content
SEND FEEDBACK

Daily
Averages
Monthly
Summary
Spain

MAHON, SPAIN


Home > Europe > Spain
Elevation: 269 feet     Latitude: 39 52N     Longitude: 004 14E

WEATHER
 
SELECT A DAY
Number of Records: 249,831;   Date Range: 7/1/96 - 7/23/14
 
SHARE

PRINT THIS DATA

[ ← Previous Day ]
WEATHER ALMANAC - MARCH 14, 2013
[ Next Day → ]
[ °C ]   °F
Weather ElementAverageHighLow
Temperature46 °F50 °F (4:30 pm)42.8 °F (1:00 am)
Dewpoint32.8 °F39.2 °F (4:00 pm)28.4 °F (1:30 pm)
Humidity59.8 %76 % (7:00 pm)43 % (1:00 pm)
Barometer29.69 in29.77 in (9:30 pm)29.56 in (1:00 am)
Wind Speed19 mph33.4 mph (1:00 am)
Wind Gust54.1 mph (1:00 am)
Weather ElementAverage
Visibility6.5 mi
Wind DirectionNNW (330.8 °)

Weather ElementTotal
Precipitation---
Heating Degree Days18.6 (Base 65)
Averaged from 39 records on March 14, 2013
WEATHER CONDITIONS BREAKOUT
WIND DIRECTION BREAKOUT
WEATHER BY HOUR - MARCH 14, 2013
[ °C ]   °F
Local TimeTemperatureDewpointHumidityBarometerVisibilityWind DirectionWind SpeedGust SpeedPrecipitationEventsConditions
1:00 AM42.8 °F33.8 °F70 %29.56 in3.7 miNorth (350°)33.4 mph54.1 mphScattered Clouds
4:00 AM44.6 °F32.0 °F61 %29.59 in5.6 miNNW (340°)23.0 mph40.3 mphScattered Clouds
5:00 AM42.8 °F32.0 °F66 %29.59 in5.6 miNNW (340°)20.7 mph33.4 mphPartly Cloudy
5:30 AM42.8 °F32.0 °F66 %29.59 in5.6 miNNW (340°)23.0 mph34.5 mphPartly Cloudy
6:00 AM44.6 °F32.0 °F61 %29.62 in5.6 miNNW (340°)26.5 mph40.3 mphPartly Cloudy
6:30 AM44.6 °F30.2 °F57 %29.62 in6.2 miNNW (340°)25.3 mph38.0 mphPartly Cloudy
7:00 AM44.0 °F31.0 °F48 %29.65 in9.0 miNNW (330°)24.2 mphScattered Clouds
7:00 AM44.6 °F30.2 °F57 %29.62 in6.2 miNNW (330°)23.0 mph39.1 mphPartly Cloudy
7:30 AM44.6 °F32.0 °F61 %29.65 in6.2 miNNW (330°)19.6 mph38.0 mphScattered Clouds
8:00 AM44.6 °F32.0 °F61 %29.65 in6.2 miNNW (340°)20.7 mph34.5 mphPartly Cloudy
8:30 AM44.6 °F32.0 °F61 %29.65 in6.2 miNNW (340°)23.0 mph36.8 mphPartly Cloudy
9:00 AM46.4 °F33.8 °F62 %29.68 in6.2 miNNW (340°)26.5 mph43.7 mphMostly Cloudy
9:30 AM46.4 °F32.0 °F57 %29.68 in6.2 miNNW (340°)24.2 mph40.3 mphMostly Cloudy
10:00 AM46.4 °F33.8 °F62 %29.71 in6.2 miNNW (340°)20.7 mph34.5 mphPartly Cloudy
11:00 AM46.4 °F33.8 °F62 %29.71 in6.2 miNNW (340°)19.6 mph31.1 mphScattered Clouds
11:30 AM48.2 °F33.8 °F58 %29.71 in6.2 miNNW (340°)21.9 mph34.5 mphScattered Clouds
12:00 PM48.2 °F33.8 °F58 %29.71 in6.2 miNNW (340°)19.6 mph31.1 mphScattered Clouds
12:30 PM48.2 °F33.8 °F58 %29.71 in6.2 miNNW (340°)24.2 mph40.3 mphScattered Clouds
1:00 PM48.2 °F32.0 °F54 %29.71 in6.2 miNNW (340°)23.0 mphPartly Cloudy
1:00 PM49.0 °F33.0 °F43 %29.73 in12.0 miNorth (350°)24.2 mphPartly Cloudy
1:30 PM48.2 °F28.4 °F46 %29.71 in6.2 miNorth (350°)25.3 mph39.1 mphPartly Cloudy
2:00 PM48.2 °F32.0 °F54 %29.71 in6.2 miNNW (340°)24.2 mph38.0 mphPartly Cloudy
2:30 PM48.2 °F32.0 °F54 %29.71 in6.2 miNNW (330°)21.9 mph34.5 mphScattered Clouds
3:00 PM48.2 °F32.0 °F54 %29.71 in6.2 miNNW (340°)18.4 mph31.1 mphScattered Clouds
3:30 PM48.2 °F33.8 °F58 %29.71 in6.2 miNW (320°)10.4 mphPartly Cloudy
4:00 PM48.2 °F39.2 °F71 %29.71 in6.2 miWest (260°)15.0 mphRainLight Rain
4:30 PM50.0 °F35.6 °F58 %29.71 in6.2 miWest (260°)15.0 mph27.6 mphPartly Cloudy
5:00 PM50.0 °F33.8 °F54 %29.71 in6.2 miWest (270°)15.0 mphPartly Cloudy
5:30 PM48.2 °F33.8 °F58 %29.71 in6.2 miWest (270°)10.4 mphPartly Cloudy
6:00 PM46.4 °F35.6 °F66 %29.71 in6.2 miWNW (290°)4.6 mphPartly Cloudy
7:00 PM44.0 °F37.0 °F68 %29.75 in14.0 miNorth (350°)10.4 mphPartly Cloudy
7:00 PM42.8 °F35.6 °F76 %29.74 in6.2 miNNW (340°)10.4 mphPartly Cloudy
7:30 PM42.8 °F35.6 °F76 %29.74 in6.2 miNorth (360°)11.5 mphPartly Cloudy
8:00 PM44.6 °F32.0 °F61 %29.74 in6.2 miNNW (340°)11.5 mphPartly Cloudy
8:30 PM44.6 °F30.2 °F57 %29.74 in6.2 miNorth (350°)15.0 mphPartly Cloudy
9:00 PM44.6 °F33.8 °F66 %29.74 in6.2 miNorth (350°)15.0 mph26.5 mphPartly Cloudy
9:30 PM44.6 °F30.2 °F57 %29.77 in6.2 miNNW (330°)13.8 mph25.3 mphPartly Cloudy
10:00 PM44.6 °F30.2 °F57 %29.77 in6.2 miNNW (330°)12.7 mph24.2 mphPartly Cloudy
10:30 PM44.6 °F30.2 °F57 %29.77 in6.2 miNNW (330°)13.8 mphPartly Cloudy
Hourly data recorded from LEMH, located miles away from Mahon, Spain







STORIES FROM OUR PARTNERS